CW6265 Weather Reports


time (UTC)temp
F
wind
direction
speed
knots
gust
knots
rain 1hr
in
rain 24hr
in
rain mn
in
humidity
%
barometer
mb
20260510225353 61 200 0.9 2.6 0.00 0.00 0.00 44 1018.8
20260510224819 61 124 0.9 1.7 0.00 0.00 0.00 45 1018.7
20260510224354 61 123 0.9 2.6 0.00 0.00 0.00 43 1018.7
20260510223816 61 123 0.9 2.6 0.00 0.00 0.00 43 1018.8
20260510223327 62 130 0.0 2.6 0.00 0.00 0.00 42 1018.8
20260510222829 62 226 0.0 2.6 0.00 0.00 0.00 42 1018.9
20260510222318 62 227 0.9 3.5 0.00 0.00 0.00 41 1018.9
20260510221821 63 211 0.9 3.5 0.00 0.00 0.00 42 1018.9
20260510221328 63 178 0.0 5.2 0.00 0.00 0.00 42 1018.9
20260510220837 63 175 0.9 5.2 0.00 0.00 0.00 43 1019.0
20260510220344 63 226 1.7 4.3 0.00 0.00 0.00 43 1018.9
20260510215830 63 200 1.7 2.6 0.00 0.00 0.00 43 1018.9
20260510215345 63 190 0.9 6.1 0.00 0.00 0.00 43 1018.8
20260510214830 63 163 1.7 6.1 0.00 0.00 0.00 42 1018.8
20260510214334 63 302 2.6 5.2 0.00 0.00 0.00 48 1018.7
20260510213820 63 211 0.9 3.5 0.00 0.00 0.00 43 1018.7
20260510213331 63 221 1.7 3.5 0.00 0.00 0.00 47 1018.7
20260510212833 62 193 1.7 5.2 0.00 0.00 0.00 45 1018.7
20260510212338 62 230 1.7 5.2 0.00 0.00 0.00 46 1018.7
20260510211845 62 169 1.7 3.5 0.00 0.00 0.00 43 1018.7
20260510211331 62 171 1.7 3.5 0.00 0.00 0.00 43 1018.7
20260510210827 62 198 1.7 3.5 0.00 0.00 0.00 44 1018.8
20260510210329 61 191 1.7 6.1 0.00 0.00 0.00 44 1018.7
20260510205832 61 254 1.7 6.1 0.00 0.00 0.00 43 1018.7
20260510205324 62 169 0.9 3.5 0.00 0.00 0.00 44 1018.8
20260510204856 62 169 0.9 3.5 0.00 0.00 0.00 45 1018.8
20260510204345 62 217 1.7 3.5 0.00 0.00 0.00 44 1018.9
20260510203827 62 196 1.7 2.6 0.00 0.00 0.00 43 1018.8
20260510203320 62 159 0.9 3.5 0.00 0.00 0.00 41 1018.9
20260510202827 63 203 0.9 3.5 0.00 0.00 0.00 41 1018.9
20260510202334 63 194 0.9 4.3 0.00 0.00 0.00 38 1018.8
20260510201837 63 250 1.7 4.3 0.00 0.00 0.00 41 1018.9
20260510201322 63 217 1.7 4.3 0.00 0.00 0.00 42 1018.9
20260510200823 63 134 0.9 3.5 0.00 0.00 0.00 41 1018.9
20260510200332 63 128 0.9 4.3 0.00 0.00 0.00 40 1018.9
20260510195819 62 153 1.7 4.3 0.00 0.00 0.00 43 1019.0
20260510195348 62 144 0.9 3.5 0.00 0.00 0.00 39 1019.1
20260510194837 62 225 0.9 3.5 0.00 0.00 0.00 41 1019.2
20260510194317 62 162 1.7 4.3 0.00 0.00 0.00 42 1019.2
20260510193827 62 198 1.7 4.3 0.00 0.00 0.00 44 1019.3
20260510193338 62 186 1.7 3.5 0.00 0.00 0.00 41 1019.3
20260510192846 62 138 0.9 4.3 0.00 0.00 0.00 43 1019.3
20260510192332 62 157 1.7 4.3 0.00 0.00 0.00 42 1019.3
20260510191832 62 340 0.0 5.2 0.00 0.00 0.00 44 1019.4
20260510191335 62 207 0.9 5.2 0.00 0.00 0.00 45 1019.4
20260510190844 62 192 2.6 5.2 0.00 0.00 0.00 45 1019.5
20260510190326 62 128 1.7 4.3 0.00 0.00 0.00 45 1019.5
20260510185819 62 184 0.9 5.2 0.00 0.00 0.00 44 1019.5
20260510185326 62 183 0.9 6.1 0.00 0.00 0.00 42 1019.6
20260510184830 62 190 1.7 6.1 0.00 0.00 0.00 43 1019.6
20260510184336 62 161 1.7 6.1 0.00 0.00 0.00 45 1019.6
20260510183819 62 190 0.9 7.8 0.00 0.00 0.00 42 1019.6
20260510183318 62 188 2.6 7.8 0.00 0.00 0.00 42 1019.7
20260510182830 62 332 1.7 3.5 0.00 0.00 0.00 42 1019.7
20260510182319 62 282 0.9 3.5 0.00 0.00 0.00 41 1019.6
20260510181826 62 313 1.7 3.5 0.00 0.00 0.00 44 1019.6
20260510181334 62 169 1.7 4.3 0.00 0.00 0.00 43 1019.5
20260510180838 62 348 1.7 5.2 0.00 0.00 0.00 40 1019.5
20260510180352 62 134 1.7 5.2 0.00 0.00 0.00 41 1019.5
20260510175831 62 17 1.7 5.2 0.00 0.00 0.00 41 1019.4
20260510175318 62 10 1.7 4.3 0.00 0.00 0.00 42 1019.3
20260510174831 62 344 1.7 5.2 0.00 0.00 0.00 41 1019.2
20260510174335 62 355 2.6 7.0 0.00 0.00 0.00 41 1019.3
20260510173836 62 226 2.6 7.0 0.00 0.00 0.00 41 1019.1
20260510173329 62 293 1.7 6.1 0.00 0.00 0.00 40 1019.1
20260510172830 62 170 1.7 6.1 0.00 0.00 0.00 45 1019.0
20260510172335 62 140 1.7 3.5 0.00 0.00 0.00 43 1018.9
20260510171842 62 259 0.9 3.5 0.00 0.00 0.00 43 1018.9
20260510171328 61 197 0.9 4.3 0.00 0.00 0.00 45 1018.9
20260510170831 61 153 1.7 4.3 0.00 0.00 0.00 45 1018.9
20260510170341 61 32 1.7 5.2 0.00 0.00 0.00 43 1019.0
20260510165822 61 174 2.6 5.2 0.00 0.00 0.00 44 1019.0
20260510165330 61 315 1.7 3.5 0.00 0.00 0.00 46 1019.0
20260510164830 60 222 0.9 3.5 0.00 0.00 0.00 46 1019.0
20260510164339 60 15 1.7 4.3 0.00 0.00 0.00 44 1019.0
20260510163818 60 250 0.9 6.1 0.00 0.00 0.00 47 1019.0
20260510163327 60 158 0.9 6.1 0.00 0.00 0.00 47 1018.9
20260510162857 59 176 2.6 5.2 0.00 0.00 0.00 48 1018.9
20260510162345 59 277 1.7 5.2 0.00 0.00 0.00 48 1018.8
20260510161842 59 156 2.6 4.3 0.00 0.00 0.00 49 1018.7
20260510161334 59 303 1.7 2.6 0.00 0.00 0.00 48 1018.8
20260510160834 58 31 1.7 2.6 0.00 0.00 0.00 51 1018.7
20260510160335 58 192 0.9 5.2 0.00 0.00 0.00 54 1018.7
20260510155841 58 182 2.6 7.0 0.00 0.00 0.00 54 1018.7
20260510155326 57 210 2.6 7.0 0.00 0.00 0.00 56 1018.6
20260510154830 57 107 1.7 6.1 0.00 0.00 0.00 55 1018.6
20260510154319 57 170 2.6 6.1 0.00 0.00 0.00 53 1018.6
20260510153825 56 202 1.7 6.1 0.00 0.00 0.00 53 1018.6
20260510153340 56 202 1.7 6.1 0.00 0.00 0.00 56 1018.5
20260510152850 56 298 0.9 2.6 0.00 0.00 0.00 56 1018.5
20260510152334 55 333 0.9 2.6 0.00 0.00 0.00 57 1018.4
20260510151831 55 178 1.7 2.6 0.00 0.00 0.00 57 1018.4
20260510151337 54 172 0.9 4.3 0.00 0.00 0.00 59 1018.3
20260510150835 54 124 0.9 4.3 0.00 0.00 0.00 56 1018.3
20260510150320 53 52 0.9 3.5 0.00 0.00 0.00 59 1018.2
20260510145835 53 221 0.9 3.5 0.00 0.00 0.00 60 1018.2
20260510145321 52 322 0.9 2.6 0.00 0.00 0.00 64 1018.1
20260510144851 52 323 0.9 2.6 0.00 0.00 0.00 64 1018.1
20260510144332 52 5 0.9 4.3 0.00 0.00 0.00 63 1018.0
20260510143816 51 117 1.7 4.3 0.00 0.00 0.00 66 1017.9
20260510143328 51 13 0.9 3.5 0.00 0.00 0.00 65 1017.9
20260510142833 50 186 0.9 3.5 0.00 0.00 0.00 67 1017.9
20260510142322 50 204 0.9 3.5 0.00 0.00 0.00 68 1017.7
20260510141827 49 337 0.9 3.5 0.00 0.00 0.00 65 1017.6
20260510141333 49 202 0.9 4.3 0.00 0.00 0.00 72 1017.6
20260510140840 48 196 2.6 4.3 0.00 0.00 0.00 72 1017.6
20260510140321 48 162 0.9 2.6 0.00 0.00 0.00 71 1017.5
20260510135823 47 161 1.7 2.6 0.00 0.00 0.00 70 1017.5
20260510135359 47 54 0.9 2.6 0.00 0.00 0.00 70 1017.5
20260510134841 47 77 1.7 2.6 0.00 0.00 0.00 75 1017.5
20260510134349 46 171 0.9 2.6 0.00 0.00 0.00 79 1017.4
20260510133816 46 154 0.9 2.6 0.00 0.00 0.00 81 1017.3
20260510133355 45 152 0.9 1.7 0.00 0.00 0.00 83 1017.2
20260510132818 45 152 0.0 1.7 0.00 0.00 0.00 85 1017.2
20260510132352 45 152 0.9 1.7 0.00 0.00 0.00 86 1017.1
20260510131834 44 148 0.0 1.7 0.00 0.00 0.00 87 1017.1
20260510131338 44 148 0.0 1.7 0.00 0.00 0.00 88 1017.1
20260510130829 44 205 0.0 0.9 0.00 0.00 0.00 88 1017.0
20260510130343 43 205 0.0 1.7 0.00 0.00 0.00 89 1017.0
20260510125839 43 205 0.9 1.7 0.00 0.00 0.00 89 1017.0
20260510125320 42 205 0.9 1.7 0.00 0.00 0.00 89 1017.0
20260510124828 42 205 0.0 2.6 0.00 0.00 0.00 90 1017.0
20260510124336 41 205 0.0 1.7 0.00 0.00 0.00 90 1016.9
20260510123845 41 205 0.0 1.7 0.00 0.00 0.00 90 1016.9
20260510123352 40 211 0.0 0.9 0.00 0.00 0.00 89 1016.8
20260510122838 40 211 0.0 0.0 0.00 0.00 0.00 89 1016.8
20260510122345 40 211 0.0 0.0 0.00 0.00 0.00 89 1016.7
20260510121834 39 211 0.0 0.0 0.00 0.00 0.00 88 1016.8
20260510121347 39 211 0.0 0.0 0.00 0.00 0.00 88 1016.6
20260510120855 39 211 0.0 0.0 0.00 0.00 0.00 88 1016.6
20260510120343 39 211 0.0 0.0 0.00 0.00 0.00 87 1016.5
20260510115828 39 211 0.0 0.0 0.00 0.00 0.00 87 1016.4
20260510115341 39 211 0.0 0.0 0.00 0.00 0.00 87 1016.4
20260510114836 39 211 0.0 0.0 0.00 0.00 0.00 86 1016.4
20260510114322 39 211 0.0 0.0 0.00 0.00 0.00 86 1016.2
20260510113829 39 211 0.0 0.0 0.00 0.00 0.00 86 1016.1
20260510113334 39 211 0.0 0.0 0.00 0.00 0.00 85 1016.0
20260510112840 39 211 0.0 0.0 0.00 0.00 0.00 85 1015.9
20260510112331 39 211 0.0 0.0 0.00 0.00 0.00 85 1015.9
20260510111821 39 211 0.0 0.0 0.00 0.00 0.00 84 1015.8
20260510111331 39 211 0.0 0.0 0.00 0.00 0.00 84 1015.8
20260510110814 39 211 0.0 0.0 0.00 0.00 0.00 84 1015.7
20260510110320 39 211 0.0 0.0 0.00 0.00 0.00 85 1015.7
20260510105817 39 211 0.0 0.0 0.00 0.00 0.00 84 1015.6
20260510105323 39 211 0.0 0.0 0.00 0.00 0.00 84 1015.6
20260510104819 39 211 0.0 0.0 0.00 0.00 0.00 84 1015.5
20260510104326 40 211 0.0 0.0 0.00 0.00 0.00 84 1015.4
20260510103838 40 211 0.0 0.0 0.00 0.00 0.00 85 1015.4
20260510103325 40 211 0.0 0.0 0.00 0.00 0.00 85 1015.4
20260510102839 40 211 0.0 0.0 0.00 0.00 0.00 85 1015.4
20260510102323 40 211 0.0 0.0 0.00 0.00 0.00 86 1015.4
20260510101821 40 211 0.0 0.0 0.00 0.00 0.00 86 1015.3
20260510101333 41 211 0.0 0.0 0.00 0.00 0.00 86 1015.2
20260510100818 41 211 0.0 0.0 0.00 0.00 0.00 87 1015.2
20260510100326 41 211 0.0 0.0 0.00 0.00 0.00 87 1015.1
20260510095828 41 211 0.0 0.0 0.00 0.00 0.00 87 1014.9
20260510095332 41 211 0.0 0.0 0.00 0.00 0.00 87 1014.9
20260510094835 41 211 0.0 0.0 0.00 0.00 0.00 87 1014.8
20260510094324 42 211 0.0 0.0 0.00 0.00 0.00 87 1014.7
20260510093827 42 211 0.0 0.0 0.00 0.00 0.00 87 1014.6
20260510093330 42 211 0.0 0.0 0.00 0.00 0.00 86 1014.6
20260510092830 42 211 0.0 0.0 0.00 0.00 0.00 85 1014.5
20260510092331 42 211 0.0 0.0 0.00 0.00 0.00 84 1014.4
20260510091814 42 211 0.0 0.0 0.00 0.00 0.00 84 1014.3
20260510091322 43 211 0.0 0.0 0.00 0.00 0.00 84 1014.2
20260510090826 43 211 0.0 0.0 0.00 0.00 0.00 84 1014.2
20260510090336 43 211 0.0 0.0 0.00 0.00 0.00 84 1014.2
20260510085842 43 211 0.0 0.9 0.00 0.00 0.00 85 1014.0
20260510085336 44 211 0.0 0.9 0.00 0.00 0.00 85 1013.9
20260510084835 44 211 0.0 0.9 0.00 0.00 0.00 85 1014.0
20260510084324 44 211 0.0 0.9 0.00 0.00 0.00 84 1013.9
20260510083830 44 211 0.0 0.0 0.00 0.00 0.00 83 1013.8
20260510083322 44 211 0.0 0.0 0.00 0.00 0.00 83 1013.8
20260510082828 44 211 0.0 0.0 0.00 0.00 0.00 83 1013.6
20260510082323 45 211 0.0 0.0 0.00 0.00 0.00 83 1013.5
20260510081856 45 211 0.0 0.0 0.00 0.00 0.00 82 1013.4
20260510081319 45 211 0.0 0.0 0.00 0.00 0.00 83 1013.4
20260510080825 45 211 0.0 0.0 0.00 0.00 0.00 82 1013.3
20260510080322 45 211 0.0 0.0 0.00 0.00 0.00 82 1013.1
20260510075818 45 211 0.0 0.0 0.00 0.00 0.00 81 1013.1
20260510075323 45 211 0.0 0.0 0.00 0.00 0.00 79 1012.9
20260510074833 45 211 0.0 0.0 0.00 0.00 0.00 75 1013.0
20260510074339 46 211 0.0 0.9 0.00 0.00 0.00 72 1012.9
20260510073820 46 211 0.0 0.9 0.00 0.00 0.00 71 1012.8
20260510073332 46 211 0.0 0.9 0.00 0.00 0.00 71 1012.7
20260510072822 46 211 0.0 0.9 0.00 0.00 0.00 72 1012.6
20260510072331 46 211 0.0 1.7 0.00 0.00 0.00 72 1012.6
20260510071831 46 211 0.0 0.0 0.00 0.00 0.00 71 1012.4
20260510071321 46 211 0.0 0.0 0.00 0.00 0.00 72 1012.4
20260510070855 46 211 0.0 0.9 0.00 0.00 0.00 73 1012.4
20260510070319 46 211 0.0 3.5 0.00 0.00 0.00 72 1012.3
20260510065822 47 211 0.0 3.5 0.00 0.00 0.00 72 1012.3
20260510065320 47 119 0.0 2.6 0.00 0.00 0.00 73 1012.2
20260510064852 47 119 0.9 2.6 0.00 0.00 0.00 73 1012.2
20260510064321 47 69 0.0 4.3 0.00 0.00 0.00 74 1012.2
20260510063855 47 69 0.0 7.0 0.00 0.00 0.00 74 1012.3
20260510063323 47 161 0.9 2.6 0.00 0.00 0.00 74 1012.3
20260510062833 47 260 0.9 3.5 0.00 0.00 0.00 76 1012.2
20260510062338 47 132 0.9 3.5 0.00 0.00 0.00 77 1012.2
20260510061848 47 213 0.9 2.6 0.00 0.00 0.00 80 1012.2
20260510061331 47 257 0.9 2.6 0.00 0.00 0.00 82 1012.1
20260510060817 47 16 0.9 2.6 0.00 0.00 0.00 83 1012.0
20260510060330 47 299 0.0 2.6 0.00 0.00 0.00 85 1012.0
20260510055828 47 213 0.9 4.3 0.00 0.00 0.00 86 1011.9
20260510055402 47 215 1.7 7.0 0.00 0.00 0.00 86 1011.7
20260510054840 47 272 1.7 6.1 0.00 0.00 0.00 87 1011.5
20260510054328 47 254 0.0 2.6 0.00 0.00 0.00 87 1011.4
20260510053857 48 17 0.9 1.7 0.00 0.00 0.00 88 1011.3
20260510053323 48 15 0.0 1.7 0.00 0.00 0.00 88 1011.2
20260510052852 48 15 0.0 0.9 0.00 0.00 0.00 88 1011.0
20260510052337 48 15 0.0 0.9 0.00 0.00 0.00 88 1011.0
20260510051818 48 15 0.0 0.0 0.00 0.00 0.00 87 1010.8
20260510051324 49 15 0.0 0.9 0.00 0.00 0.00 86 1010.7
20260510050830 49 15 0.0 0.9 0.00 0.00 0.00 85 1010.6
20260510050321 49 15 0.0 0.0 0.00 0.00 0.00 85 1010.6
20260510045822 49 15 0.0 0.0 0.00 0.00 0.00 85 1010.4
20260510045320 49 15 0.0 0.0 0.00 0.00 0.00 85 1010.4
20260510044850 49 15 0.0 0.0 0.00 0.00 0.00 83 1010.3
20260510044338 50 15 0.0 0.0 0.00 0.00 0.00 81 1010.0
20260510043848 50 15 0.0 0.0 0.00 0.00 0.00 84 1010.0
20260510043337 50 15 0.0 0.0 0.00 0.00 0.00 85 1009.9
20260510042823 50 15 0.0 0.0 0.00 0.00 0.00 84 1009.8
20260510042333 50 15 0.0 0.0 0.00 0.00 0.00 84 1009.7
20260510041836 50 15 0.0 0.9 0.00 0.00 0.00 83 1009.7
20260510041341 50 15 0.0 0.9 0.00 0.00 0.00 83 1009.6
20260510040816 51 15 0.0 0.0 0.00 0.00 0.00 82 1009.4
20260510040326 51 15 0.0 0.0 0.00 0.00 0.00 82 1009.4
20260510035845 51 15 0.0 0.9 0.00 0.00 0.00 82 1009.3
20260510035321 51 15 0.0 0.9 0.00 0.00 0.00 81 1009.2
20260510034824 51 15 0.0 0.9 0.00 0.00 0.00 81 1009.2
20260510034336 51 15 0.0 0.9 0.00 0.00 0.00 80 1009.1
20260510033838 51 15 0.0 0.9 0.00 0.00 0.00 79 1009.1
20260510033346 52 15 0.0 0.9 0.00 0.00 0.00 79 1009.0
20260510032828 52 15 0.0 0.9 0.00 0.00 0.00 78 1008.9
20260510032335 52 15 0.0 0.0 0.00 0.00 0.00 77 1008.9
20260510031818 52 15 0.0 0.0 0.00 0.00 0.00 77 1008.7
20260510031321 52 15 0.0 0.0 0.00 0.00 0.00 75 1008.6
20260510030826 53 15 0.0 0.0 0.00 0.00 0.00 75 1008.5
20260510030319 53 15 0.0 0.0 0.00 0.00 0.00 73 1008.4
20260510025821 53 15 0.0 0.9 0.00 0.00 0.00 73 1008.3
20260510025327 53 15 0.0 1.7 0.00 0.00 0.00 73 1008.4
20260510024832 53 15 0.0 1.7 0.00 0.00 0.00 73 1008.4
20260510024335 53 15 0.0 0.9 0.00 0.00 0.00 72 1008.2
20260510023840 54 15 0.0 0.9 0.00 0.00 0.00 71 1008.2
20260510023343 54 15 0.0 0.9 0.00 0.00 0.00 71 1008.2
20260510022836 54 15 0.0 0.9 0.00 0.00 0.00 71 1008.1
20260510022321 54 15 0.0 0.9 0.00 0.00 0.00 70 1008.1
20260510021819 54 15 0.0 0.9 0.00 0.00 0.00 70 1007.9
20260510021324 54 15 0.0 0.9 0.00 0.00 0.00 69 1007.8
20260510020853 55 15 0.0 1.7 0.00 0.00 0.00 69 1007.7
20260510020316 55 15 0.0 1.7 0.00 0.00 0.00 68 1007.6
20260510015826 55 15 0.0 0.9 0.00 0.00 0.00 69 1007.6
20260510015321 55 15 0.0 1.7 0.00 0.00 0.00 68 1007.6
20260510014827 55 15 0.0 1.7 0.00 0.00 0.00 68 1007.5
20260510014334 55 15 0.0 2.6 0.00 0.00 0.00 67 1007.4
20260510013834 56 9 0.0 2.6 0.00 0.00 0.00 67 1007.3
20260510013320 56 236 0.9 2.6 0.00 0.00 0.00 69 1007.2
20260510012836 56 234 0.9 2.6 0.00 0.00 0.00 68 1007.1
20260510012323 56 159 0.9 2.6 0.00 0.00 0.00 68 1006.9
20260510011826 56 202 0.9 2.6 0.00 0.00 0.00 68 1006.8
20260510011331 57 190 0.9 2.6 0.00 0.00 0.00 68 1006.8
20260510010818 57 171 0.0 2.6 0.00 0.00 0.00 67 1006.7
20260510010331 57 169 0.0 2.6 0.00 0.00 0.00 66 1006.7
20260510005821 57 140 0.0 2.6 0.00 0.00 0.00 65 1006.5
20260510005329 57 136 0.0 1.7 0.00 0.00 0.00 66 1006.4
20260510004817 58 136 0.9 1.7 0.00 0.00 0.00 66 1006.4
20260510004355 58 136 0.0 2.6 0.00 0.00 0.00 64 1006.3
20260510003824 58 136 0.0 2.6 0.00 0.00 0.00 64 1006.4
20260510003403 58 136 0.0 1.7 0.00 0.00 0.00 64 1006.2
20260510002853 58 136 0.9 1.7 0.00 0.00 0.00 63 1006.2
20260510002339 58 119 0.9 1.7 0.00 0.00 0.00 62 1006.1
20260510001819 59 118 0.9 2.6 0.00 0.00 0.00 62 1006.0
20260510001324 59 118 0.9 2.6 0.00 0.00 0.00 62 1006.0
20260510000831 59 5 0.9 4.3 0.00 0.00 0.00 62 1005.9
20260510000348 59 246 0.9 4.3 0.00 0.00 0.00 64 1005.8
20260509235831 59 263 0.9 4.3 0.00 0.00 0.00 64 1005.6
20260509235330 59 251 1.7 3.5 0.00 0.00 0.00 62 1005.6
20260509234816 59 153 0.9 3.5 0.00 0.00 0.00 62 1005.6
20260509234325 59 267 1.7 3.5 0.00 0.00 0.00 62 1005.6
20260509233832 59 190 0.9 1.7 0.00 0.00 0.00 60 1005.5
20260509233323 60 190 0.0 1.7 0.00 0.00 0.00 60 1005.4
20260509232856 60 217 0.0 2.6 0.00 0.00 0.00 58 1005.3
20260509232318 60 210 0.9 2.6 0.00 0.00 0.00 59 1005.2
20260509231822 60 210 0.9 3.5 0.00 0.00 0.00 60 1005.2
20260509231334 60 244 1.7 4.3 0.00 0.00 0.00 58 1005.2
20260509230834 60 30 0.9 4.3 0.00 0.00 0.00 57 1005.0
20260509230328 60 249 0.9 3.5 0.00 0.00 0.00 55 1005.0
20260509225819 61 246 0.9 4.3 0.00 0.00 0.00 55 1004.9